Location: Sewell
(39.7660°N, 75.1450°W)
Time: 03:44:47
(UTC-04:00)

ISS - Visible Passes

Search period start: 31 May 2016 00:00
Search period end: 10 June 2016 00:00
Orbit: 402 x 404 km, 51.6° (Epoch: 30 May)

Date Brightness Start Highest point End Pass type
(mag) Time Alt. Az. Time Alt. Az. Time Alt. Az.
31 May 0.2 00:28:29 10° NNW 00:29:32 11° N 00:30:35 10° NNE visible
31 May -0.9 02:04:01 10° NNW 02:05:58 23° N 02:05:58 23° N visible
31 May -0.2 21:56:39 10° WNW 21:58:54 17° NNW 22:01:08 10° NNE visible
31 May 0.2 23:35:45 10° N 23:36:25 10° N 23:37:03 10° NNE visible
01 Jun -0.4 01:11:30 10° NNW 01:13:34 18° NNE 01:13:34 18° NNE visible
01 Jun -0.7 21:03:11 10° W 21:05:54 24° NNW 21:08:37 10° NNE visible
01 Jun 0.1 22:42:22 10° NNW 22:43:16 11° N 22:44:10 10° N visible
02 Jun -0.3 00:19:01 10° NNW 00:20:50 14° NNE 00:21:51 12° NE visible
02 Jun -0.1 21:48:39 10° NW 21:50:08 12° NNW 21:51:37 10° NNE visible
02 Jun -0.1 23:26:31 10° NNW 23:27:44 12° N 23:28:56 10° NNE visible
03 Jun -0.4 01:02:03 10° NW 01:03:00 16° NNW 01:03:00 16° NNW visible
03 Jun -0.3 20:54:58 10° WNW 20:57:03 16° NNW 20:59:08 10° NNE visible
03 Jun 0.0 22:33:53 10° N 22:34:35 11° N 22:35:18 10° NNE visible
04 Jun -0.7 00:09:30 10° NNW 00:11:41 20° NNE 00:11:41 20° NNE visible
04 Jun 0.0 21:40:39 10° NNW 21:41:26 11° N 21:42:12 10° N visible
04 Jun -0.5 23:17:00 10° NNW 23:18:59 15° NNE 23:20:26 12° NE visible
05 Jun -0.2 00:52:42 10° NW 00:53:02 12° NW 00:53:02 12° NW visible
05 Jun -0.3 22:24:29 10° NNW 22:25:53 12° N 22:27:15 10° NE visible
06 Jun -1.0 00:00:02 10° NW 00:01:50 25° NNW 00:01:50 25° NNW visible
06 Jun -0.2 21:31:53 10° N 21:32:43 11° N 21:33:33 10° NNE visible
06 Jun -1.3 23:07:27 10° NNW 23:10:07 22° NNE 23:10:42 21° NE visible
07 Jun -0.7 22:14:54 10° NNW 22:17:04 16° NNE 22:19:13 10° ENE visible
07 Jun -1.1 23:50:41 10° NW 23:52:10 24° NW 23:52:10 24° NW visible
08 Jun -0.5 21:22:23 10° NNW 21:23:57 13° NNE 21:25:32 10° NE visible
08 Jun -2.3 22:57:58 10° NW 23:01:06 40° NNE 23:01:06 40° NNE visible
09 Jun -1.5 22:05:21 10° NNW 22:08:08 25° NNE 22:10:05 15° ENE visible
09 Jun -0.9 23:41:35 10° WNW 23:42:40 19° WNW 23:42:40 19° WNW visible
